This is the latest recevied weather packets stored in our database for station/object WA6MHA-11. If no packets are shown the sender has not sent any weather packets the latest 10 day(s).
| Time | Temp. | Humidity | Pressure | Rain* | Wind** | Luminosity | Snow |
|---|---|---|---|---|---|---|---|
| 1777739606 | 16.67° C | 50% | 1016.3 hPa | 0 mm | - | - | - |
| 1777739367 | 17.22° C | 51% | 1016.3 hPa | 0 mm | - | - | - |
| 1777739123 | 17.78° C | 52% | 1016.2 hPa | 0 mm | - | - | - |
| 1777738882 | 17.78° C | 52% | 1016.3 hPa | 0 mm | - | - | - |
| 1777738400 | 16.67° C | 54% | 1016.2 hPa | 0 mm | - | - | - |
| 1777738159 | 16.11° C | 54% | 1016.1 hPa | 0 mm | - | - | - |
| 1777737917 | 16.11° C | 54% | 1016.2 hPa | 0 mm | - | - | - |
| 1777737677 | 15.56° C | 54% | 1016.2 hPa | 0 mm | - | - | - |
| 1777737434 | 15.56° C | 54% | 1016.2 hPa | 0 mm | - | - | - |
| 1777737196 | 15° C | 54% | 1016.1 hPa | 0 mm | - | - | - |
| 1777736956 | 15° C | 55% | 1016 hPa | 0 mm | - | - | - |
| 1777736711 | 14.44° C | 55% | 1016.1 hPa | 0 mm | - | - | - |
| 1777736228 | 14.44° C | 57% | 1016 hPa | 0 mm | - | - | - |
| 1777735986 | 14.44° C | 57% | 1015.9 hPa | 0 mm | - | - | - |
| 1777735745 | 14.44° C | 57% | 1015.9 hPa | 0 mm | - | - | - |
| 1777735022 | 13.89° C | 57% | 1015.8 hPa | 0 mm | - | - | - |
| 1777734782 | 13.89° C | 58% | 1015.6 hPa | 0 mm | - | - | - |
| 1777734539 | 13.89° C | 59% | 1015.7 hPa | 0 mm | - | - | - |
| 1777734300 | 13.89° C | 58% | 1015.7 hPa | 0 mm | - | - | - |
| 1777733332 | 13.89° C | 59% | 1015.7 hPa | 0 mm | - | - | - |
| 1777732851 | 13.89° C | 59% | 1015.8 hPa | 0 mm | - | - | - |
| 1777732609 | 13.89° C | 59% | 1015.9 hPa | 0 mm | - | - | - |
| 1777732368 | 13.89° C | 59% | 1016.1 hPa | 0 mm | - | - | - |
| 1777731885 | 13.33° C | 59% | 1015.9 hPa | 0 mm | - | - | - |
| 1777731643 | 13.33° C | 59% | 1015.7 hPa | 0 mm | - | - | - |
* Rain since midnight (hover to see other rain measurements)
** Current wind speed in m/s (hover to see current wind gust speed)